Simultaneous Nadir Overpasses (SNOs) Predictions

Prediction of SNOs between METOP-A and NOAA-19 Satellite Orbit:

Table of predicted SNOs for the next 14.0 days since TLE Epoch: 4/27/2017
Index Date (METOP-A) Time (METOP-A) Lat,Lon (METOP-A) SZA (METOP-A ) Date (NOAA-19) Time (NOAA-19) Lat,Lon (NOAA-19) SZA (NOAA-19 ) Distance(km) Time Diff (sec)
1 05/07/2017 12:15:22 -77.46,-178.51 119.49 05/07/2017 12:14:13 -77.46, 178.98 119.53 60.50 69
2 05/07/2017 13:06:08 77.19, -12.35 60.22 05/07/2017 13:05:03 77.18, -12.42 60.20 1.84 65
3 05/07/2017 13:56:50 -77.18, 154.94 119.81 05/07/2017 13:56:07 -77.15, 154.96 119.84 3.21 43
4 05/07/2017 14:47:30 77.17, -37.77 60.18 05/07/2017 14:47:04 77.16, -37.80 60.16 1.63 26
5 05/07/2017 15:38:12 -77.16, 129.52 119.85 05/07/2017 15:38:09 -77.17, 129.39 119.85 3.44 3
6 05/07/2017 16:28:52 77.15, -63.19 60.14 05/07/2017 16:29:05 77.13, -63.19 60.12 2.15 13
7 05/07/2017 17:19:34 -77.14, 104.10 119.89 05/07/2017 17:20:10 -77.14, 104.00 119.89 2.51 36
8 05/07/2017 18:10:14 77.13, -88.61 60.10 05/07/2017 18:11:06 77.11, -88.57 60.07 3.03 52
9 05/07/2017 19:00:56 -77.12, 78.68 119.93 05/07/2017 19:02:11 -77.12, 78.62 119.93 1.92 75




NCC Satellite Simultaneous Nadir Overpasses (SNOs) Prediction Service
